Location: Newark
(37.6333°N, 5.2500°W)
Time: 17:30:37
(UTC+00:00)

Envisat - Visible Passes

Search period start: 19 March 2019 00:00
Search period end: 29 March 2019 00:00
Orbit: 764 x 766 km, 98.2° (Epoch: 19 March)

Date Brightness Start Highest point End Pass type
(mag) Time Alt. Az. Time Alt. Az. Time Alt. Az.
19 Mar 3.0 18:49:03 10° SSE 18:54:05 70° ENE 18:59:09 10° N visible
19 Mar 6.1 20:31:49 10° WSW 20:33:34 12° W 20:35:19 10° WNW visible
20 Mar 5.1 19:52:11 10° SSW 19:56:29 28° W 20:00:49 10° NW visible
21 Mar 3.5 19:14:34 10° S 19:19:36 65° WSW 19:24:40 10° NNW visible
22 Mar 5.9 20:19:18 10° SW 20:22:14 15° W 20:25:10 10° NW visible
23 Mar 4.7 19:40:36 10° SSW 19:45:13 35° W 19:49:52 10° NNW visible
24 Mar 3.1 19:03:18 10° SSE 19:08:23 83° WSW 19:13:30 10° NNW visible
25 Mar 5.7 20:07:17 10° SW 20:10:55 20° W 20:14:35 10° NW visible
26 Mar 4.2 19:29:07 10° S 19:33:57 45° W 19:38:50 10° NNW visible
27 Mar 6.3 20:35:57 10° W 20:36:43 10° W 20:37:30 10° W visible
28 Mar 5.3 19:55:29 10° SSW 19:59:37 25° W 20:03:47 10° NW visible
